TimeCDT,TemperatureF,Dew PointF,Humidity,Sea Level PressureIn,VisibilityMPH,Wind Direction,Wind SpeedMPH,Gust SpeedMPH,PrecipitationIn,Events,Conditions,WindDirDegrees,DateUTC
12:52 AM,50.0,46.0,86,30.00,10.0,ENE,3.5,-,N/A,,Clear,70,2013-09-23 05:52:00
1:52 AM,50.0,46.9,89,30.01,10.0,East,5.8,-,N/A,,Clear,90,2013-09-23 06:52:00
2:52 AM,51.1,46.9,86,30.00,10.0,East,6.9,-,N/A,,Clear,90,2013-09-23 07:52:00
3:52 AM,48.9,46.0,90,30.01,10.0,East,3.5,-,N/A,,Clear,80,2013-09-23 08:52:00
4:52 AM,48.9,46.0,90,30.01,10.0,East,6.9,-,N/A,,Clear,90,2013-09-23 09:52:00
5:52 AM,48.0,46.0,93,30.04,10.0,East,3.5,-,N/A,,Clear,100,2013-09-23 10:52:00
6:52 AM,48.0,45.0,89,30.05,10.0,East,4.6,-,N/A,,Clear,100,2013-09-23 11:52:00
7:52 AM,51.1,48.0,89,30.07,10.0,ESE,3.5,-,N/A,,Clear,110,2013-09-23 12:52:00
8:52 AM,55.9,48.9,77,30.07,10.0,ESE,8.1,-,N/A,,Clear,120,2013-09-23 13:52:00
9:52 AM,62.1,50.0,65,30.07,10.0,SSE,6.9,-,N/A,,Clear,150,2013-09-23 14:52:00
10:52 AM,68.0,50.0,52,30.07,10.0,South,10.4,-,N/A,,Clear,180,2013-09-23 15:52:00
11:52 AM,70.0,48.9,47,30.06,10.0,SSE,9.2,-,0.00,,Clear,150,2013-09-23 16:52:00
12:52 PM,73.0,46.9,39,30.04,10.0,ESE,13.8,-,N/A,,Clear,120,2013-09-23 17:52:00
1:52 PM,73.0,46.0,38,30.01,10.0,Variable,6.9,16.1,N/A,,Clear,0,2013-09-23 18:52:00
2:52 PM,73.9,45.0,35,30.00,10.0,ESE,9.2,-,N/A,,Clear,120,2013-09-23 19:52:00
3:52 PM,75.0,44.1,33,29.98,10.0,SSE,9.2,-,N/A,,Clear,150,2013-09-23 20:52:00
4:52 PM,75.0,44.1,33,29.97,10.0,SE,9.2,-,N/A,,Clear,130,2013-09-23 21:52:00
5:52 PM,73.0,43.0,34,29.97,10.0,ESE,10.4,-,N/A,,Clear,110,2013-09-23 22:52:00
6:52 PM,66.0,46.9,50,29.97,10.0,ESE,6.9,-,N/A,,Clear,110,2013-09-23 23:52:00
7:52 PM,62.1,46.9,58,29.97,10.0,ESE,5.8,-,N/A,,Clear,120,2013-09-24 00:52:00
8:52 PM,57.9,46.9,67,29.97,10.0,ESE,6.9,-,N/A,,Clear,110,2013-09-24 01:52:00
9:52 PM,57.0,48.0,72,29.98,10.0,ESE,9.2,-,N/A,,Clear,120,2013-09-24 02:52:00
10:52 PM,57.9,48.0,70,29.98,10.0,ESE,10.4,-,N/A,,Clear,120,2013-09-24 03:52:00
11:52 PM,55.9,48.0,75,29.99,10.0,SE,5.8,-,N/A,,Clear,130,2013-09-24 04:52:00